TimeCDT,TemperatureF,Dew PointF,Humidity,Sea Level PressureIn,VisibilityMPH,Wind Direction,Wind SpeedMPH,Gust SpeedMPH,PrecipitationIn,Events,Conditions,WindDirDegrees,DateUTC
12:13 AM,30.2,26.6,86,30.13,1.5,NNE,3.5,-,0.02,Snow,Light Snow,20,2013-04-23 05:13:00
12:33 AM,30.2,26.6,86,30.13,2.0,Calm,Calm,-,0.03,Snow,Light Snow,0,2013-04-23 05:33:00
12:53 AM,30.2,26.6,86,30.13,2.5,Calm,Calm,-,N/A,Snow,Light Snow,0,2013-04-23 05:53:00
1:13 AM,30.2,26.6,86,30.13,1.5,Calm,Calm,-,N/A,Snow,Light Snow,0,2013-04-23 06:13:00
1:33 AM,30.2,26.6,86,30.12,1.5,Calm,Calm,-,0.01,Snow,Light Snow,0,2013-04-23 06:33:00
1:53 AM,28.4,26.6,93,30.11,1.2,Calm,Calm,-,N/A,Snow,Light Snow,0,2013-04-23 06:53:00
2:13 AM,28.4,26.6,93,30.10,1.5,North,3.5,-,0.01,Snow,Light Snow,10,2013-04-23 07:13:00
2:33 AM,28.4,26.6,93,30.09,1.8,NNE,3.5,-,0.02,Snow,Light Snow,20,2013-04-23 07:33:00
2:53 AM,28.4,26.6,93,30.09,2.0,NNE,4.6,-,N/A,Snow,Light Snow,20,2013-04-23 07:53:00
3:13 AM,28.4,26.6,93,30.09,2.5,North,3.5,-,0.01,Snow,Light Snow,10,2013-04-23 08:13:00
3:33 AM,28.4,26.6,93,30.09,2.5,North,3.5,-,0.01,Snow,Light Snow,10,2013-04-23 08:33:00
3:53 AM,28.4,24.8,86,30.08,2.0,North,4.6,-,N/A,Snow,Light Snow,360,2013-04-23 08:53:00
4:13 AM,28.4,24.8,86,30.08,2.0,North,5.8,-,N/A,,Overcast,360,2013-04-23 09:13:00
4:33 AM,28.4,24.8,86,30.08,5.0,NNE,5.8,-,N/A,Snow,Light Snow,20,2013-04-23 09:33:00
5:13 AM,28.4,24.8,86,30.07,5.0,North,4.6,-,N/A,Snow,Light Snow,10,2013-04-23 10:13:00
5:33 AM,28.4,24.8,86,30.06,10.0,North,5.8,-,N/A,,Overcast,10,2013-04-23 10:33:00
5:53 AM,28.4,21.2,74,30.05,10.0,North,5.8,-,N/A,,Overcast,10,2013-04-23 10:53:00
6:13 AM,28.4,23.0,80,30.05,7.0,Calm,Calm,-,N/A,Snow,Light Snow,0,2013-04-23 11:13:00
6:33 AM,28.4,23.0,80,30.05,10.0,Calm,Calm,-,N/A,,Scattered Clouds,0,2013-04-23 11:33:00
6:53 AM,28.4,21.2,74,30.05,10.0,Calm,Calm,-,N/A,,Mostly Cloudy,0,2013-04-23 11:53:00
7:13 AM,28.4,21.2,74,30.06,10.0,Calm,Calm,-,N/A,,Mostly Cloudy,0,2013-04-23 12:13:00
7:33 AM,28.4,21.2,74,30.06,10.0,Calm,Calm,-,N/A,,Scattered Clouds,0,2013-04-23 12:33:00
7:53 AM,30.2,21.2,69,30.06,10.0,Calm,Calm,-,N/A,,Mostly Cloudy,0,2013-04-23 12:53:00
8:13 AM,32.0,21.2,64,30.07,10.0,Calm,Calm,-,N/A,,Overcast,0,2013-04-23 13:13:00
8:34 AM,33.8,21.2,60,30.07,10.0,North,5.8,-,N/A,,Overcast,350,2013-04-23 13:34:00
8:53 AM,35.6,21.2,56,30.06,10.0,NNW,4.6,-,N/A,,Mostly Cloudy,330,2013-04-23 13:53:00
9:13 AM,35.6,21.2,56,30.05,10.0,North,9.2,-,N/A,,Mostly Cloudy,350,2013-04-23 14:13:00
9:33 AM,37.4,21.2,52,30.04,10.0,North,9.2,-,N/A,,Overcast,350,2013-04-23 14:33:00
9:53 AM,37.4,19.4,48,30.04,10.0,North,10.4,17.3,N/A,,Scattered Clouds,10,2013-04-23 14:53:00
10:13 AM,39.2,19.4,45,30.04,10.0,North,5.8,9.2,N/A,,Clear,350,2013-04-23 15:13:00
10:33 AM,37.4,17.6,45,30.04,10.0,North,5.8,17.3,N/A,,Clear,360,2013-04-23 15:33:00
10:53 AM,39.2,17.6,42,30.04,10.0,NNW,8.1,-,N/A,,Clear,330,2013-04-23 15:53:00
11:13 AM,41.0,17.6,39,30.03,10.0,NNW,8.1,-,N/A,,Clear,330,2013-04-23 16:13:00
11:33 AM,42.8,15.8,34,30.03,10.0,North,8.1,-,N/A,,Clear,350,2013-04-23 16:33:00
11:53 AM,42.8,12.2,29,30.03,10.0,NNW,6.9,-,N/A,,Clear,330,2013-04-23 16:53:00
12:13 PM,44.6,14.0,29,30.03,10.0,NNW,5.8,16.1,N/A,,Clear,330,2013-04-23 17:13:00
12:33 PM,44.6,10.4,25,30.02,10.0,WNW,3.5,-,N/A,,Clear,300,2013-04-23 17:33:00
12:53 PM,44.6,10.4,25,30.00,10.0,NNW,8.1,-,N/A,,Clear,340,2013-04-23 17:53:00
1:13 PM,44.6,10.4,25,29.99,10.0,NNW,3.5,-,N/A,,Clear,340,2013-04-23 18:13:00
1:33 PM,44.6,8.6,23,29.99,10.0,NNW,8.1,-,N/A,,Clear,330,2013-04-23 18:33:00
1:53 PM,46.4,8.6,22,29.99,10.0,North,3.5,-,N/A,,Clear,350,2013-04-23 18:53:00
2:13 PM,46.4,6.8,20,29.99,10.0,NW,6.9,-,N/A,,Clear,310,2013-04-23 19:13:00
2:33 PM,46.4,5.0,18,29.99,10.0,North,10.4,-,N/A,,Clear,10,2013-04-23 19:33:00
2:53 PM,44.6,6.8,21,29.99,10.0,NNW,8.1,-,N/A,,Scattered Clouds,340,2013-04-23 19:53:00
3:13 PM,-9999,-9999,N/A,29.98,10.0,North,8.1,-,N/A,,Clear,360,2013-04-23 20:13:00
3:33 PM,46.4,3.2,17,29.98,10.0,NNW,8.1,-,N/A,,Scattered Clouds,330,2013-04-23 20:33:00
3:54 PM,44.6,3.2,18,29.97,10.0,NNW,4.6,-,N/A,,Clear,340,2013-04-23 20:54:00
4:13 PM,42.8,5.0,21,29.97,10.0,WNW,3.5,-,N/A,,Clear,300,2013-04-23 21:13:00
4:33 PM,44.6,3.2,18,29.97,10.0,North,4.6,-,N/A,,Scattered Clouds,10,2013-04-23 21:33:00
4:53 PM,46.4,3.2,17,29.96,10.0,Calm,Calm,-,N/A,,Scattered Clouds,0,2013-04-23 21:53:00
5:13 PM,44.6,3.2,18,29.96,10.0,NNW,5.8,-,N/A,,Scattered Clouds,340,2013-04-23 22:13:00
5:33 PM,44.6,1.4,17,29.96,10.0,NNE,4.6,-,N/A,,Clear,20,2013-04-23 22:33:00
5:53 PM,44.6,3.2,18,29.96,10.0,NW,4.6,-,N/A,,Clear,320,2013-04-23 22:53:00
6:13 PM,42.8,3.2,19,29.96,10.0,North,3.5,-,N/A,,Clear,350,2013-04-23 23:13:00
6:33 PM,42.8,3.2,19,29.96,10.0,NW,3.5,-,N/A,,Clear,310,2013-04-23 23:33:00
6:53 PM,41.0,3.2,21,29.96,10.0,Calm,Calm,-,N/A,,Clear,0,2013-04-23 23:53:00
7:13 PM,39.2,3.2,22,29.96,-9999.0,West,4.6,-,N/A,,Clear,280,2013-04-24 00:13:00
7:33 PM,37.4,5.0,26,29.96,10.0,WNW,3.5,-,N/A,,Clear,290,2013-04-24 00:33:00
7:53 PM,37.4,3.2,24,29.96,10.0,Calm,Calm,-,N/A,,Clear,0,2013-04-24 00:53:00
8:13 PM,33.8,5.0,30,29.96,10.0,Calm,Calm,-,N/A,,Clear,0,2013-04-24 01:13:00
8:33 PM,30.2,6.8,37,29.96,10.0,Calm,Calm,-,N/A,,Clear,0,2013-04-24 01:33:00
8:54 PM,28.4,8.6,43,29.97,10.0,Calm,Calm,-,N/A,,Clear,0,2013-04-24 01:54:00
9:13 PM,26.6,10.4,51,29.97,10.0,Calm,Calm,-,N/A,,Clear,0,2013-04-24 02:13:00
9:33 PM,26.6,10.4,51,29.96,10.0,Calm,Calm,-,N/A,,Clear,0,2013-04-24 02:33:00
9:53 PM,26.6,10.4,51,29.96,10.0,Calm,Calm,-,N/A,,Clear,0,2013-04-24 02:53:00
10:13 PM,24.8,12.2,59,29.96,10.0,Calm,Calm,-,N/A,,Clear,0,2013-04-24 03:13:00
10:33 PM,23.0,12.2,63,29.96,10.0,Calm,Calm,-,N/A,,Clear,0,2013-04-24 03:33:00
10:53 PM,21.2,12.2,68,29.96,10.0,Calm,Calm,-,N/A,,Clear,0,2013-04-24 03:53:00
11:13 PM,23.0,12.2,63,29.96,10.0,Calm,Calm,-,N/A,,Clear,0,2013-04-24 04:13:00
11:33 PM,21.2,12.2,68,29.96,10.0,Calm,Calm,-,N/A,,Clear,0,2013-04-24 04:33:00
11:53 PM,21.2,12.2,68,29.96,10.0,Calm,Calm,-,N/A,,Clear,0,2013-04-24 04:53:00